sat.trackr.live / text

‹ back to catalog

STARLINK-31871

NORAD 59673 · 2024-084V

PAYLOAD ACTIVE UNKNOWN

§ Identity

Operator
Country
US
Launch date
2024-05-06
Launch site
AFETR
Launch vehicle
Mass (kg)
RCS (m²)

Purposes: comms

External: N2YO · Heavens-Above · Gunter

§ Orbital elements

Epoch: 2026-09-21T18:43:47.335008Z

Period
94.27 min
Inclination
43.0014°
Eccentricity
0.0000981
Mean motion
15.27576504 rev/d
Perigee alt
482.4 km
Apogee alt
483.7 km
Semi-major
6,861.2 km
B*
3.9565e-5
RAAN
14.2870°
Arg perigee
252.5474°
Mean anomaly
107.5270°
Rev number
13,436

§ Raw data

STARLINK-318711 59673U 24084V   26264.78040897  .00000827  00000+0  39565-4 0  99992 59673  43.0014  14.2870 0000981 252.5474 107.5270 15.27576504134364

JSON: /api/v1/satellites/59673 · /tle

For live sub-satellite position, see the globe view (requires WebGL).

§ Visibility from observer

Set your observer location to see the next 7 days of passes ≥ 10°. The values pass through the URL so the page stays shareable.

No JS? Fill the form by hand. The geolocation button needs JavaScript.